Weather History for Molokai, HI

Change the Weather History Date:

Thursday, August 8, 2013

  Actual Average Record
Temperature  
Mean Temperature 76 °F -  
Max Temperature 82 °F 85 °F 93 °F (1983)
Min Temperature 71 °F 71 °F 32 °F (1997)
Cooling Degree Days 12    
Growing Degree Days 26 (Base 50)    
Moisture  
Dew Point 68 °F    
Average Humidity 74    
Maximum Humidity 90    
Minimum Humidity 54    
Precipitation  
Precipitation 0.00 in - - ()
Sea Level Pressure  
Sea Level Pressure 30.06 in    
Wind  
Wind Speed 10 mph (NE)    
Max Wind Speed 20 mph    
Max Gust Speed 29 mph    
Visibility 10 miles    
Events      
Averages and records for this station are not official NWS values.
T = Trace of Precipitation, MM = Missing Value Source: NWS Daily Summary

Daily Weather History Graph

Daily Weather History Graph

Search for Another Location

Airport:

Trip Planner

Search our weather history database for the weather conditions in past years. The results will help you decide how hot, cold, wet, or windy it might be!

Date:

Astronomy

Aug. 08, 2013 Rise Set
Actual Time 6:04 AM HST 7:02 PM HST
Civil Twilight 5:41 AM HST 7:26 PM HST
Nautical Twilight 5:13 AM HST 7:53 PM HST
Astronomical Twilight 4:45 AM HST 8:21 PM HST
Moon 7:40 AM HST (8/8) 8:13 PM HST (8/8)
Length of Visible Light 13h 44m
Length of Day
12h 57m
Waxing Crescent, 4% of the Moon is Illuminated
Aug 8
Waxing Crescent
Aug 14
First Quarter
Aug 20
Full
Aug 27
Last Quarter
Sep 5
New

Hourly Weather History & Observations

Time (HST) Temp. Heat Index Dew Point Humidity Pressure Visibility Wind Dir Wind Speed Gust Speed Precip Events Conditions
12:54 AM 72.0 °F - 66.0 °F 81% 30.06 in 10.0 mi NNE 8.1 mph - N/A   Clear
1:54 AM 72.0 °F - 66.0 °F 81% 30.05 in 10.0 mi NE 5.8 mph - N/A   Clear
2:54 AM 72.0 °F - 66.0 °F 81% 30.03 in 10.0 mi NE 8.1 mph - N/A   Clear
3:54 AM 73.0 °F - 64.0 °F 73% 30.03 in 10.0 mi NNE 6.9 mph - N/A   Clear
4:54 AM 72.0 °F - 66.9 °F 84% 30.04 in 10.0 mi ENE 4.6 mph - N/A   Clear
5:54 AM 71.1 °F - 66.0 °F 84% 30.05 in 10.0 mi ENE 6.9 mph - N/A   Clear
6:54 AM 73.9 °F - 66.0 °F 76% 30.06 in 10.0 mi NE 8.1 mph - N/A   Partly Cloudy
7:54 AM 77.0 °F - 66.9 °F 71% 30.07 in 10.0 mi NE 10.4 mph - N/A   Clear
8:54 AM 79.0 °F - 66.9 °F 66% 30.08 in 10.0 mi NE 13.8 mph 21.9 mph N/A   Partly Cloudy
9:54 AM 82.9 °F 85.4 °F 66.9 °F 58% 30.08 in 10.0 mi NE 11.5 mph 19.6 mph N/A   Partly Cloudy
10:54 AM 81.0 °F 83.0 °F 66.0 °F 60% 30.07 in 10.0 mi NNE 11.5 mph 21.9 mph N/A   Scattered Clouds
11:54 AM 82.9 °F 84.6 °F 64.9 °F 54% 30.06 in 10.0 mi NE 13.8 mph 28.8 mph N/A   Scattered Clouds
12:54 PM 81.0 °F 84.1 °F 69.1 °F 67% 30.07 in 10.0 mi NE 16.1 mph 24.2 mph N/A   Mostly Cloudy
1:54 PM 82.9 °F 85.8 °F 68.0 °F 60% 30.05 in 10.0 mi ENE 18.4 mph 25.3 mph N/A   Scattered Clouds
2:54 PM 82.9 °F 87.0 °F 70.0 °F 65% 30.03 in 10.0 mi NE 18.4 mph 26.5 mph N/A   Scattered Clouds
3:54 PM 82.0 °F 85.5 °F 69.1 °F 65% 30.02 in 10.0 mi NE 19.6 mph 28.8 mph N/A   Partly Cloudy
4:54 PM 80.1 °F 82.9 °F 69.1 °F 69% 30.01 in 10.0 mi NE 18.4 mph 27.6 mph N/A   Partly Cloudy
5:54 PM 78.1 °F - 69.1 °F 74% 30.02 in 10.0 mi NNE 15.0 mph 25.3 mph N/A   Clear
6:54 PM 75.0 °F - 69.1 °F 82% 30.04 in 10.0 mi NE 12.7 mph 24.2 mph N/A   Partly Cloudy
7:54 PM 73.9 °F - 69.1 °F 85% 30.06 in 10.0 mi NE 13.8 mph 27.6 mph N/A   Partly Cloudy
8:54 PM 73.9 °F - 70.0 °F 87% 30.08 in 10.0 mi NE 12.7 mph 23.0 mph N/A   Clear
9:54 PM 73.9 °F - 69.1 °F 85% 30.09 in 10.0 mi NE 10.4 mph - N/A   Partly Cloudy
10:54 PM 73.0 °F - 70.0 °F 90% 30.10 in 10.0 mi NE 9.2 mph 18.4 mph N/A   Scattered Clouds
11:54 PM 73.0 °F - 69.1 °F 87% 30.09 in 10.0 mi NE 9.2 mph - N/A   Mostly Cloudy